period_start,C,m1,H,J0,J1,J2,J3,J4,J5,JA,JB,JC,JD,JJ,JK,JN,#
2015-02-28 00:01:13,0.15,3.21,0.00,19.97,25.42,28.44,4.89,28.23,1016.63,2037.39,2297.62,2514.88,2717.55,350.08,351.50,17.84,0000 0000 0000 0000 000000
2015-02-28 00:06:14,0.14,3.22,0.00,19.97,25.42,28.45,4.90,28.43,1016.63,2037.36,2296.43,2513.99,2716.53,349.74,350.92,17.87,0000 0000 0000 0000 000000
2015-02-28 00:11:15,0.18,3.22,0.00,20.00,25.42,28.45,4.83,28.27,1016.64,2037.52,2295.17,2513.07,2715.53,349.64,350.97,17.90,0000 0000 0000 0000 000000
2015-02-28 00:16:17,0.18,3.23,0.00,19.99,25.42,28.45,4.88,28.35,1016.62,2037.63,2293.83,2512.14,2714.52,350.35,351.36,17.93,0000 0000 0000 0000 000000
2015-02-28 00:21:18,0.16,3.23,0.00,20.02,25.42,28.42,4.79,28.25,1016.62,2037.46,2292.52,2511.17,2713.39,349.65,350.91,17.96,0000 0000 0000 0000 000000
2015-02-28 00:26:19,0.14,3.24,0.00,20.01,25.41,28.49,4.87,28.25,1016.63,2037.51,2291.27,2510.18,2712.38,350.02,351.23,17.99,0000 0000 0000 0000 000000
2015-02-28 00:31:21,0.20,3.24,0.00,20.03,25.41,28.54,4.92,28.56,1016.60,2037.54,2289.80,2509.14,2711.32,350.45,351.48,18.02,0000 0000 0000 0000 000000
2015-02-28 00:36:22,0.16,3.25,0.00,20.07,25.40,28.51,4.88,28.41,1016.63,2037.59,2288.44,2508.13,2710.18,349.98,351.05,18.05,0000 0000 0000 0000 000000
2015-02-28 00:41:23,0.14,3.25,0.00,20.01,25.40,28.51,4.88,28.30,1016.63,2037.39,2287.11,2507.10,2708.99,350.56,351.76,18.08,0000 0000 0000 0000 000000
2015-02-28 00:46:24,0.25,3.26,0.00,20.10,25.40,28.55,4.85,28.22,1016.62,2037.71,2285.66,2506.11,2707.93,349.58,350.69,18.11,0000 0000 0000 0000 000000
2015-02-28 00:51:26,0.16,3.26,0.00,20.06,25.40,28.57,4.87,28.18,1016.62,2037.82,2284.46,2505.12,2706.82,349.75,350.92,18.14,0000 0000 0000 0000 000000
2015-02-28 00:56:27,0.17,3.27,0.00,20.02,25.41,28.52,4.85,28.22,1016.62,2037.78,2283.05,2504.06,2705.70,349.98,351.08,18.17,0000 0000 0000 0000 000000
2015-02-28 01:01:28,0.18,3.27,0.00,20.06,25.41,28.52,4.85,28.27,1016.61,2037.80,2281.74,2503.01,2704.59,349.22,350.72,18.20,0000 0000 0000 0000 000000
2015-02-28 01:06:29,0.12,3.28,0.00,20.07,25.42,28.49,4.78,28.28,1016.61,2037.58,2280.43,2501.93,2703.41,349.82,351.37,18.22,0000 0000 0000 0000 000000
2015-02-28 01:11:31,0.15,3.28,0.00,20.06,25.42,28.59,4.87,28.21,1016.61,2037.44,2279.00,2500.90,2702.22,350.24,351.41,18.25,0000 0000 0000 0000 000000
2015-02-28 01:16:32,0.17,3.29,0.00,20.10,25.42,28.54,4.87,28.27,1016.63,2037.32,2277.60,2499.84,2701.04,349.92,351.11,18.28,0000 0000 0000 0000 000000
2015-02-28 01:21:34,0.19,3.29,0.00,20.11,25.42,28.57,4.79,28.13,1016.64,2037.32,2276.22,2498.74,2699.82,349.12,350.03,18.31,0000 0000 0000 0000 000000
2015-02-28 01:26:35,0.22,3.30,0.00,20.08,25.42,28.53,4.87,28.25,1016.67,2037.45,2274.80,2497.72,2698.70,349.95,351.39,18.34,0000 0000 0000 0000 000000
2015-02-28 01:31:36,0.15,3.30,0.00,20.08,25.42,28.51,4.93,28.25,1016.69,2037.28,2273.39,2496.58,2697.51,350.71,351.76,18.37,0000 0000 0000 0000 000000
2015-02-28 01:36:38,0.16,3.31,0.00,20.13,25.43,28.44,4.86,28.25,1016.89,2037.30,2271.99,2495.61,2696.32,349.97,351.19,18.40,0000 0000 0000 0000 000000
2015-02-28 01:41:39,0.17,3.31,0.00,20.11,25.44,28.46,4.85,28.39,1017.09,2037.23,2270.42,2494.55,2695.13,349.53,350.80,18.43,0000 0000 0000 0000 000000
2015-02-28 01:46:41,0.15,3.32,0.00,20.12,25.45,28.46,4.89,28.27,1017.06,2037.14,2269.02,2493.56,2693.93,350.18,351.45,18.46,0000 0000 0000 0000 000000
2015-02-28 01:51:42,0.18,3.32,0.00,20.16,25.45,28.53,4.74,28.22,1017.10,2037.09,2267.69,2492.54,2692.79,349.58,350.95,18.49,0000 0000 0000 0000 000000
2015-02-28 01:56:43,0.18,3.33,0.00,20.19,25.45,28.48,4.80,28.20,1017.10,2037.09,2266.42,2491.46,2691.63,349.91,351.07,18.52,0000 0000 0000 0000 000000
2015-02-28 02:01:45,0.16,3.33,0.00,20.18,25.47,28.51,4.90,28.34,1017.12,2037.06,2265.06,2490.43,2690.57,350.21,351.43,18.55,0000 0000 0000 0000 000000
2015-02-28 02:06:46,0.18,3.34,0.00,20.21,25.47,28.48,4.92,28.27,1017.19,2037.04,2263.69,2489.36,2689.38,350.45,351.48,18.58,0000 0000 0000 0000 000000
2015-02-28 02:11:47,0.16,3.34,0.00,20.23,25.48,28.55,4.92,28.21,1017.11,2037.02,2262.38,2488.33,2688.21,350.59,351.63,18.61,0000 0000 0000 0000 000000
2015-02-28 02:16:48,0.17,3.35,0.00,20.27,25.50,28.58,4.93,28.26,1017.11,2037.01,2260.97,2487.30,2687.07,350.79,351.79,18.63,0000 0000 0000 0000 000000
2015-02-28 02:21:50,0.19,3.35,0.00,20.27,25.50,28.60,4.87,28.28,1017.11,2037.00,2259.58,2486.14,2685.85,350.07,351.21,18.66,0000 0000 0000 0000 000000
2015-02-28 02:26:51,0.19,3.36,0.00,20.30,25.52,28.60,4.87,28.39,1017.06,2037.00,2258.12,2484.98,2684.63,350.14,351.18,18.69,0000 0000 0000 0000 000000
2015-02-28 02:31:52,0.19,3.36,0.00,20.30,25.52,28.58,4.89,28.43,1016.96,2037.00,2256.67,2483.86,2683.44,350.37,351.15,18.72,0000 0000 0000 0000 000000
2015-02-28 02:36:53,0.19,3.37,0.00,20.33,25.54,28.66,4.82,28.19,1016.83,2037.00,2255.22,2482.71,2682.19,349.67,350.78,18.75,0000 0000 0000 0000 000000
2015-02-28 02:41:54,0.21,3.38,0.00,20.32,25.55,28.59,4.79,28.33,1016.72,2036.99,2253.65,2481.55,2680.85,350.21,351.06,18.78,0000 0000 0000 0000 000000
2015-02-28 02:46:55,0.19,3.38,0.00,20.31,25.56,28.65,4.88,28.26,1016.98,2036.99,2252.13,2480.37,2679.57,350.11,351.03,18.81,0000 0000 0000 0000 000000
2015-02-28 02:51:57,0.19,3.39,0.00,20.39,25.57,28.68,4.88,28.46,1017.01,2036.97,2250.62,2479.24,2678.29,350.17,351.09,18.84,0000 0000 0000 0000 000000
2015-02-28 02:56:58,0.19,3.39,0.00,20.40,25.58,28.66,4.90,28.35,1017.07,2036.98,2249.20,2478.03,2677.02,350.14,351.06,18.87,0000 0000 0000 0000 000000
2015-02-28 03:01:59,0.20,3.40,0.00,20.40,25.60,28.69,4.84,28.41,1017.08,2036.93,2247.67,2476.85,2675.70,349.59,350.46,18.90,0000 0000 0000 0000 000000
2015-02-28 03:07:01,0.19,3.40,0.00,20.46,25.61,28.73,4.86,28.48,1016.99,2036.90,2246.22,2475.75,2674.51,350.13,350.90,18.93,0000 0000 0000 0000 000000
2015-02-28 03:12:02,0.20,3.41,0.00,20.49,25.62,28.76,4.86,28.30,1017.06,2036.87,2244.73,2474.59,2673.30,350.21,351.03,18.96,0000 0000 0000 0000 000000
2015-02-28 03:17:04,0.14,3.42,0.00,20.49,25.64,28.76,4.93,28.52,1016.86,2036.70,2243.28,2473.45,2672.01,350.23,350.73,18.99,0000 0000 0000 0000 000000
2015-02-28 03:22:05,0.15,3.42,0.00,20.47,25.65,28.77,4.87,28.51,1016.75,2036.37,2241.71,2472.26,2670.69,350.08,350.97,19.02,0000 0000 0000 0000 000000
2015-02-28 03:27:06,0.14,3.43,0.00,20.52,25.67,28.79,4.88,28.68,1016.64,2036.11,2240.26,2471.09,2669.43,349.94,350.62,19.04,0000 0000 0000 0000 000000
2015-02-28 03:32:08,0.18,3.43,0.00,20.61,25.67,28.87,4.94,28.63,1016.62,2036.06,2238.84,2469.90,2668.19,350.26,350.75,19.07,0000 0000 0000 0000 000000
2015-02-28 03:37:09,0.21,3.43,0.00,20.58,25.70,28.93,4.88,28.41,1016.62,2036.02,2237.53,2468.72,2666.89,350.09,350.64,19.10,0000 0000 0000 0000 000000
2015-02-28 03:42:10,0.20,3.44,0.00,20.62,25.71,28.97,4.90,28.58,1016.62,2036.01,2236.00,2467.59,2665.62,349.82,350.65,19.13,0000 0000 0000 0000 000000
2015-02-28 03:47:11,0.18,3.45,0.00,20.66,25.72,29.01,4.85,28.44,1016.62,2036.00,2234.67,2466.55,2664.46,350.01,350.43,19.16,0000 0000 0000 0000 000000
2015-02-28 03:52:13,0.17,3.45,0.00,20.64,25.74,29.04,4.82,28.38,1016.58,2036.00,2233.27,2465.45,2663.24,349.21,349.65,19.19,0000 0000 0000 0000 000000
2015-02-28 03:57:14,0.19,3.46,0.00,20.65,25.75,29.05,4.79,28.49,1016.24,2036.00,2231.84,2464.34,2661.99,349.85,349.95,19.22,0000 0000 0000 0000 000000
2015-02-28 04:02:15,0.19,3.46,0.00,20.64,25.77,29.05,4.83,28.43,1016.15,2036.00,2230.44,2463.24,2660.78,349.75,350.21,19.25,0000 0000 0000 0000 000000
2015-02-28 04:07:16,0.19,3.47,0.00,20.66,25.78,29.06,4.80,28.43,1016.13,2036.00,2228.93,2462.07,2659.54,350.41,350.69,19.28,0000 0000 0000 0000 000000
2015-02-28 04:12:17,0.21,3.48,0.00,20.67,25.80,29.08,4.93,28.48,1016.13,2036.00,2227.44,2460.84,2658.37,350.47,350.79,19.31,0000 0000 0000 0000 000000
2015-02-28 04:17:19,0.18,3.48,0.00,20.66,25.81,29.10,4.80,28.38,1016.13,2035.99,2225.99,2459.74,2657.06,349.46,349.71,19.34,0000 0000 0000 0000 000000
2015-02-28 04:22:20,0.21,3.49,0.00,20.63,25.82,29.11,4.90,28.43,1016.13,2035.96,2224.53,2458.58,2655.80,349.70,349.78,19.37,0000 0000 0000 0000 000000
2015-02-28 04:27:21,0.21,3.49,0.00,20.69,25.85,29.07,4.96,28.52,1016.13,2035.96,2222.93,2457.40,2654.47,350.37,350.62,19.40,0000 0000 0000 0000 000000
2015-02-28 04:32:22,0.18,3.50,0.00,20.70,25.85,29.11,4.85,28.52,1016.13,2035.96,2221.47,2456.21,2653.21,349.29,349.65,19.43,0000 0000 0000 0000 000000
2015-02-28 04:37:24,0.18,3.50,0.00,20.72,25.87,29.15,4.90,28.68,1016.13,2035.88,2219.98,2455.05,2651.92,350.32,350.35,19.45,0000 0000 0000 0000 000000
2015-02-28 04:42:25,0.15,3.51,0.00,20.67,25.88,29.13,4.83,28.59,1016.13,2035.58,2218.39,2453.75,2650.52,349.18,349.32,19.48,0000 0000 0000 0000 000000
2015-02-28 04:47:26,0.16,3.51,0.00,20.69,25.90,29.13,4.80,28.51,1016.13,2035.21,2216.83,2452.57,2649.25,349.94,350.19,19.51,0000 0000 0000 0000 000000
2015-02-28 04:52:27,0.18,3.52,0.00,20.70,25.90,29.12,4.87,28.52,1016.15,2035.17,2215.43,2451.48,2647.99,350.05,350.33,19.54,0000 0000 0000 0000 000000
2015-02-28 04:57:29,0.19,3.53,0.00,20.66,25.92,29.15,4.86,28.54,1016.14,2035.08,2213.89,2450.30,2646.68,350.01,350.30,19.57,0000 0000 0000 0000 000000
2015-02-28 05:02:30,0.18,3.53,0.00,20.65,25.92,29.14,4.84,28.63,1016.13,2035.04,2212.37,2449.11,2645.43,349.67,349.93,19.60,0000 0000 0000 0000 000000
2015-02-28 05:07:31,0.21,3.54,0.00,20.68,25.94,29.15,4.89,28.61,1016.11,2035.02,2210.77,2447.90,2644.14,350.39,350.65,19.63,0000 0000 0000 0000 000000
2015-02-28 05:12:32,0.20,3.54,0.00,20.71,25.95,29.15,4.81,28.49,1016.14,2035.01,2209.32,2446.73,2642.85,350.20,350.47,19.66,0000 0000 0000 0000 000000
2015-02-28 05:17:33,0.19,3.55,0.00,20.67,25.96,29.16,4.90,28.56,1016.14,2035.01,2207.93,2445.62,2641.59,349.90,350.36,19.69,0000 0000 0000 0000 000000
2015-02-28 05:22:35,0.19,3.55,0.00,20.66,25.97,29.14,4.80,28.48,1016.13,2035.00,2206.52,2444.54,2640.45,349.90,350.12,19.72,0000 0000 0000 0000 000000
2015-02-28 05:27:36,0.17,3.56,0.00,20.69,25.97,29.16,4.87,28.57,1016.13,2035.00,2205.04,2443.40,2639.16,350.12,350.25,19.75,0000 0000 0000 0000 000000
2015-02-28 05:32:38,0.21,3.57,0.00,20.66,25.98,29.18,4.85,28.50,1016.13,2035.00,2203.59,2442.27,2637.85,350.32,350.60,19.78,0000 0000 0000 0000 000000
2015-02-28 05:37:39,0.18,3.57,0.00,20.65,26.00,29.18,4.85,28.58,1016.13,2035.00,2202.13,2441.14,2636.62,350.18,350.44,19.81,0000 0000 0000 0000 000000
2015-02-28 05:42:40,0.22,3.58,0.00,20.67,26.00,29.16,4.85,28.72,1016.13,2035.00,2200.56,2439.92,2635.38,349.59,349.68,19.84,0000 0000 0000 0000 000000
2015-02-28 05:47:41,0.22,3.58,0.00,20.66,26.00,29.12,4.79,28.61,1016.13,2035.00,2198.97,2438.71,2634.10,349.46,349.75,19.86,0000 0000 0000 0000 000000
2015-02-28 05:52:42,0.20,3.59,0.00,20.63,26.00,29.12,4.85,28.64,1016.15,2034.99,2197.57,2437.59,2632.76,350.07,350.37,19.89,0000 0000 0000 0000 000000
2015-02-28 05:57:44,0.19,3.60,0.00,20.65,26.02,29.14,4.86,28.66,1016.26,2034.99,2196.08,2436.47,2631.57,350.07,350.61,19.92,0000 0000 0000 0000 000000
2015-02-28 06:02:45,0.20,3.60,0.00,20.66,26.02,29.15,4.90,28.55,1016.18,2034.98,2194.59,2435.28,2630.31,350.20,350.33,19.95,0000 0000 0000 0000 000000
2015-02-28 06:07:46,0.18,3.61,0.00,20.64,26.02,29.12,4.86,28.56,1016.16,2034.99,2193.02,2434.12,2629.06,350.17,350.51,19.98,0000 0000 0000 0000 000000
2015-02-28 06:12:48,0.20,3.61,0.00,20.64,26.02,29.11,4.96,28.52,1016.25,2034.99,2191.58,2433.01,2627.86,350.87,351.20,20.01,0000 0000 0000 0000 000000
2015-02-28 06:17:49,0.22,3.62,0.00,20.61,26.02,29.12,4.93,28.55,1016.14,2034.98,2189.99,2431.82,2626.62,350.44,350.80,20.04,0000 0000 0000 0000 000000
2015-02-28 06:22:50,0.19,3.63,0.00,20.59,26.02,29.11,4.82,28.76,1016.13,2034.99,2188.45,2430.75,2625.41,349.47,349.71,20.07,0000 0000 0000 0000 000000
2015-02-28 06:27:51,0.19,3.63,0.00,20.58,26.02,29.16,4.88,28.50,1016.13,2034.99,2187.04,2429.68,2624.16,349.84,350.23,20.10,0000 0000 0000 0000 000000
2015-02-28 06:32:52,0.20,3.64,0.00,20.58,26.02,29.18,4.96,28.69,1016.13,2034.98,2185.62,2428.53,2622.96,350.88,351.32,20.13,0000 0000 0000 0000 000000
2015-02-28 06:37:54,0.19,3.64,0.00,20.62,26.02,29.15,4.81,28.45,1016.14,2034.95,2184.17,2427.43,2621.77,349.40,349.71,20.16,0000 0000 0000 0000 000000
2015-02-28 06:42:55,0.20,3.65,0.00,20.54,26.02,29.07,4.87,28.63,1016.13,2034.89,2182.67,2426.25,2620.54,349.80,350.26,20.19,0000 0000 0000 0000 000000
2015-02-28 06:47:57,0.18,3.65,0.00,20.57,26.02,29.12,4.88,28.48,1016.13,2034.95,2181.41,2425.18,2619.44,350.48,350.90,20.22,0000 0000 0000 0000 000000
2015-02-28 06:52:58,0.18,3.66,0.00,20.51,26.02,29.12,4.81,28.42,1016.13,2034.95,2179.94,2424.16,2618.23,349.31,349.83,20.25,0000 0000 0000 0000 000000
2015-02-28 06:57:59,0.19,3.67,0.00,20.51,26.02,29.07,4.82,28.35,1016.13,2034.95,2178.55,2423.09,2617.09,349.58,350.15,20.27,0000 0000 0000 0000 000000
2015-02-28 07:03:00,0.18,3.67,0.00,20.51,26.01,29.08,4.83,28.45,1016.14,2034.95,2177.21,2422.01,2615.92,349.98,350.41,20.30,0000 0000 0000 0000 000000
2015-02-28 07:08:01,0.19,3.68,0.00,20.50,26.00,29.02,4.77,28.49,1016.13,2034.98,2175.78,2420.99,2614.83,350.07,350.71,20.33,0000 0000 0000 0000 000000
2015-02-28 07:13:03,0.20,3.68,0.00,20.49,26.00,29.07,4.93,28.65,1016.13,2034.98,2174.50,2419.91,2613.60,350.30,350.81,20.36,0000 0000 0000 0000 000000
2015-02-28 07:18:04,0.19,3.69,0.00,20.50,26.00,29.03,4.83,28.62,1016.13,2034.98,2173.07,2418.82,2612.47,349.65,350.03,20.39,0000 0000 0000 0000 000000
2015-02-28 07:23:05,0.19,3.70,0.00,20.48,25.99,29.15,4.86,28.48,1016.13,2034.98,2171.70,2417.77,2611.25,349.43,350.07,20.42,0000 0000 0000 0000 000000
2015-02-28 07:28:06,0.19,3.70,0.00,20.41,25.97,29.09,4.93,28.68,1016.13,2034.98,2170.29,2416.70,2610.05,350.53,351.00,20.45,0000 0000 0000 0000 000000
2015-02-28 07:33:08,0.20,3.71,0.00,20.44,25.97,29.00,4.86,28.68,1016.13,2034.99,2168.88,2415.66,2608.89,350.04,350.58,20.48,0000 0000 0000 0000 000000
2015-02-28 07:38:09,0.21,3.71,0.00,20.38,25.97,29.03,4.81,28.54,1016.13,2034.99,2167.49,2414.50,2607.69,349.47,350.02,20.51,0000 0000 0000 0000 000000
2015-02-28 07:43:10,0.18,3.72,0.00,20.40,25.95,29.01,4.84,28.48,1016.14,2034.99,2166.01,2413.43,2606.50,349.82,350.37,20.54,0000 0000 0000 0000 000000
2015-02-28 07:48:12,0.19,3.72,0.00,20.38,25.95,28.94,4.90,28.50,1016.14,2034.99,2164.65,2412.39,2605.39,350.44,351.10,20.57,0000 0000 0000 0000 000000
2015-02-28 07:53:13,0.18,3.73,0.00,20.35,25.95,28.95,4.76,28.43,1016.14,2034.99,2163.22,2411.35,2604.22,349.46,350.05,20.60,0000 0000 0000 0000 000000
2015-02-28 07:58:14,0.21,3.74,0.00,20.36,25.93,28.92,4.84,28.51,1016.13,2034.99,2161.71,2410.23,2603.05,349.75,350.54,20.63,0000 0000 0000 0000 000000
2015-02-28 08:03:16,0.21,3.74,0.00,20.37,25.92,28.92,4.85,28.62,1016.13,2034.99,2160.13,2409.01,2601.74,350.02,350.63,20.66,0000 0000 0000 0000 000000
2015-02-28 08:08:17,0.23,3.75,0.00,20.33,25.92,28.92,4.85,28.56,1016.14,2034.99,2158.61,2407.83,2600.52,349.51,350.20,20.68,0000 0000 0000 0000 000000
2015-02-28 08:13:18,0.22,3.76,0.00,20.35,25.90,28.88,4.88,28.60,1016.12,2035.00,2156.95,2406.62,2599.15,349.85,350.51,20.71,0000 0000 0000 0000 000000
2015-02-28 08:18:20,0.21,3.76,0.00,20.35,25.90,28.87,4.89,28.61,1016.09,2035.00,2155.40,2405.45,2597.86,349.78,350.55,20.74,0000 0000 0000 0000 000000
2015-02-28 08:23:21,0.22,3.77,0.00,20.33,25.90,28.92,4.89,28.57,1015.95,2035.01,2153.79,2404.28,2596.59,350.00,350.63,20.77,0000 0000 0000 0000 000000
2015-02-28 08:28:22,0.19,3.78,0.00,20.32,25.87,28.88,4.82,28.46,1016.01,2035.04,2152.39,2403.13,2595.38,350.27,350.99,20.80,0000 0000 0000 0000 000000
2015-02-28 08:33:24,0.20,3.78,0.00,20.29,25.87,28.87,4.78,28.39,1016.10,2035.02,2150.87,2401.98,2594.09,349.78,350.60,20.83,0000 0000 0000 0000 000000
2015-02-28 08:38:25,0.23,3.79,0.00,20.27,25.87,28.80,4.97,28.58,1015.84,2035.03,2149.29,2400.82,2592.81,350.14,350.84,20.86,0000 0000 0000 0000 000000
2015-02-28 08:43:26,0.24,3.79,0.00,20.28,25.85,28.89,4.83,28.79,1015.92,2035.09,2147.66,2399.67,2591.54,350.07,350.64,20.89,0000 0000 0000 0000 000000
2015-02-28 08:48:28,0.26,3.80,0.00,20.25,25.85,28.85,4.90,28.90,1016.12,2035.41,2146.20,2398.50,2590.35,349.90,350.50,20.92,0000 0000 0000 0000 000000
2015-02-28 08:53:29,0.26,3.81,0.00,20.24,25.83,28.82,4.91,28.68,1016.13,2035.60,2144.59,2397.29,2589.00,350.03,350.91,20.95,0000 0000 0000 0000 000000
2015-02-28 08:58:30,0.28,3.82,0.00,20.22,25.82,28.78,4.91,28.64,1016.13,2035.69,2142.80,2395.92,2587.65,350.29,351.05,20.98,0000 0000 0000 0000 000000
2015-02-28 09:03:31,0.24,3.82,0.00,20.22,25.82,28.81,4.84,28.57,1016.09,2035.81,2141.08,2394.65,2586.32,349.78,350.59,21.01,0000 0000 0000 0000 000000
2015-02-28 09:08:32,0.21,3.83,0.00,20.19,25.80,28.79,4.86,28.49,1015.97,2035.83,2139.52,2393.40,2584.96,349.82,350.50,21.04,0000 0000 0000 0000 000000
2015-02-28 09:13:34,0.25,3.84,0.00,20.18,25.80,28.78,4.77,28.53,1016.13,2035.92,2137.85,2392.24,2583.69,349.83,350.49,21.07,0000 0000 0000 0000 000000
2015-02-28 09:18:35,0.23,3.85,0.00,20.22,25.79,28.78,4.86,28.77,1016.12,2035.96,2136.14,2390.88,2582.28,349.85,350.80,21.10,0000 0000 0000 0000 000000
2015-02-28 09:23:37,0.24,3.85,0.00,20.19,25.77,28.77,4.86,28.82,1016.13,2035.97,2134.45,2389.62,2580.88,350.20,351.13,21.12,0000 0000 0000 0000 000000
2015-02-28 09:28:38,0.24,3.86,0.00,20.21,25.77,28.75,4.86,28.74,1016.13,2035.96,2132.74,2388.31,2579.49,349.86,350.72,21.15,0000 0000 0000 0000 000000
2015-02-28 09:33:39,0.21,3.87,0.00,20.21,25.75,28.71,4.91,28.80,1016.13,2035.99,2131.11,2387.08,2578.13,350.21,351.03,21.18,0000 0000 0000 0000 000000
2015-02-28 09:38:41,0.26,3.87,0.00,20.20,25.75,28.74,4.83,28.89,1016.10,2035.99,2129.49,2385.76,2576.70,349.33,349.99,21.21,0000 0000 0000 0000 000000
2015-02-28 09:43:42,0.23,3.88,0.00,20.20,25.73,28.78,4.88,28.76,1016.01,2035.99,2127.75,2384.49,2575.32,349.70,350.53,21.24,0000 0000 0000 0000 000000
2015-02-28 09:48:43,0.20,3.89,0.00,20.18,25.72,28.75,4.92,28.98,1015.73,2035.99,2126.27,2383.31,2573.98,350.27,350.95,21.27,0000 0000 0000 0000 000000
2015-02-28 09:53:45,0.24,3.89,0.00,20.16,25.71,28.73,4.82,28.80,1015.81,2035.99,2124.58,2382.03,2572.58,350.01,350.86,21.30,0000 0000 0000 0000 000000
2015-02-28 09:58:46,0.19,3.90,0.00,20.13,25.70,28.68,4.89,28.91,1015.86,2035.99,2123.17,2380.88,2571.36,350.05,350.88,21.33,0000 0000 0000 0000 000000
2015-02-28 10:03:47,0.24,3.91,0.00,20.08,25.69,28.72,4.88,28.79,1016.12,2035.99,2121.63,2379.70,2570.12,349.67,350.75,21.36,0000 0000 0000 0000 000000
2015-02-28 10:08:49,0.24,3.91,0.00,20.10,25.67,28.68,4.94,28.87,1016.14,2035.99,2119.96,2378.52,2568.75,350.37,351.22,21.39,0000 0000 0000 0000 000000
2015-02-28 10:13:50,0.21,3.92,0.00,20.14,25.67,28.62,4.85,28.60,1016.15,2036.00,2118.37,2377.31,2567.48,350.14,350.90,21.42,0000 0000 0000 0000 000000
2015-02-28 10:18:51,0.22,3.93,0.00,20.08,25.65,28.61,4.83,28.72,1016.13,2036.01,2116.79,2376.08,2566.14,350.04,351.17,21.45,0000 0000 0000 0000 000000
2015-02-28 10:23:52,0.21,3.93,0.00,20.04,25.65,28.60,4.88,28.95,1016.10,2036.01,2115.29,2374.90,2564.80,350.20,351.39,21.48,0000 0000 0000 0000 000000
2015-02-28 10:28:54,0.23,3.94,0.00,20.04,25.62,28.59,4.81,28.81,1016.12,2036.02,2113.82,2373.77,2563.55,349.61,350.79,21.50,0000 0000 0000 0000 000000
2015-02-28 10:33:55,0.22,3.95,0.00,20.07,25.62,28.51,4.83,28.88,1016.09,2036.03,2112.23,2372.61,2562.36,350.13,351.37,21.53,0000 0000 0000 0000 000000
2015-02-28 10:38:56,0.23,3.95,0.00,20.06,25.60,28.57,4.88,28.87,1015.89,2036.04,2110.69,2371.43,2561.01,350.46,351.33,21.56,0000 0000 0000 0000 000000
2015-02-28 10:43:57,0.22,3.96,0.00,20.02,25.60,28.58,4.90,28.84,1015.76,2036.07,2109.13,2370.17,2559.67,349.79,350.74,21.59,0000 0000 0000 0000 000000
2015-02-28 10:48:59,0.26,3.97,0.00,20.04,25.58,28.54,4.93,28.89,1015.92,2036.38,2107.74,2369.09,2558.73,350.46,351.48,21.62,0000 0000 0000 0000 000000
2015-02-28 10:54:00,0.23,3.98,0.00,19.97,25.57,28.55,4.82,28.69,1016.13,2036.68,2106.48,2368.04,2557.64,350.00,351.36,21.65,0000 0000 0000 0000 000000
2015-02-28 10:59:02,0.22,3.98,0.00,19.99,25.56,28.56,4.89,28.78,1016.13,2036.85,2104.96,2367.07,2556.45,350.26,351.38,21.68,0000 0000 0000 0000 000000
2015-02-28 11:04:03,0.23,3.99,0.00,19.99,25.55,28.53,4.87,28.72,1016.13,2036.96,2103.53,2366.04,2555.27,349.99,351.09,21.71,0000 0000 0000 0000 000000
2015-02-28 11:09:04,0.18,4.00,0.00,19.99,25.54,28.52,4.87,28.77,1016.18,2036.96,2102.18,2364.96,2554.04,350.32,351.47,21.74,0000 0000 0000 0000 000000
2015-02-28 11:14:05,0.22,4.00,0.00,19.95,25.52,28.53,4.89,28.73,1016.29,2036.98,2100.73,2363.92,2552.84,349.88,351.00,21.77,0000 0000 0000 0000 000000
2015-02-28 11:19:07,0.20,4.01,0.00,19.97,25.52,28.47,4.94,29.02,1016.23,2036.99,2099.29,2362.85,2551.74,350.22,351.44,21.80,0000 0000 0000 0000 000000
2015-02-28 11:24:08,0.21,4.01,0.00,19.95,25.50,28.43,4.85,29.00,1016.15,2036.99,2097.89,2361.76,2550.55,349.39,350.59,21.83,0000 0000 0000 0000 000000
2015-02-28 11:29:09,0.19,4.02,0.00,19.96,25.50,28.40,4.89,28.99,1016.14,2036.99,2096.51,2360.74,2549.39,349.93,351.19,21.86,0000 0000 0000 0000 000000
2015-02-28 11:34:11,0.20,4.02,0.00,19.98,25.48,28.40,4.90,28.92,1016.14,2036.99,2095.07,2359.66,2548.18,350.07,351.13,21.89,0000 0000 0000 0000 000000
2015-02-28 11:39:12,0.22,4.03,0.00,19.97,25.47,28.40,4.89,28.89,1016.14,2036.99,2093.71,2358.59,2546.95,349.96,351.00,21.91,0000 0000 0000 0000 000000
2015-02-28 11:44:13,0.20,4.04,0.00,19.95,25.46,28.40,4.99,28.99,1016.14,2036.99,2092.28,2357.38,2545.70,350.47,351.51,21.94,0000 0000 0000 0000 000000
2015-02-28 11:49:14,0.21,4.04,0.00,19.96,25.45,28.49,4.82,28.82,1016.14,2036.99,2090.82,2356.42,2544.55,350.21,351.28,21.97,0000 0000 0000 0000 000000
2015-02-28 11:54:16,0.20,4.05,0.00,19.93,25.45,28.48,4.91,28.92,1016.15,2037.00,2089.38,2355.07,2543.31,350.01,350.88,22.00,0000 0000 0000 0000 000000
2015-02-28 11:59:17,0.21,4.06,0.00,19.87,25.43,28.33,4.91,28.98,1016.16,2037.02,2087.84,2353.98,2542.04,350.54,351.80,22.03,0000 0000 0000 0000 000000
2015-02-28 12:04:18,0.23,4.06,0.00,19.87,25.42,28.29,4.82,28.84,1016.22,2037.02,2086.44,2352.83,2540.82,349.74,351.10,22.06,0000 0000 0000 0000 000000
2015-02-28 12:09:19,0.20,4.07,0.00,19.90,25.41,28.27,4.90,28.95,1016.41,2037.04,2085.01,2351.80,2539.67,350.01,351.07,22.09,0000 0000 0000 0000 000000
2015-02-28 12:14:20,0.24,4.07,0.00,19.91,25.40,28.31,4.92,28.73,1016.58,2037.11,2083.61,2350.80,2538.43,349.76,351.11,22.12,0000 0000 0000 0000 000000
2015-02-28 12:19:22,0.18,4.08,0.00,19.92,25.40,28.39,4.86,28.75,1016.54,2037.21,2082.37,2349.76,2537.39,349.68,350.86,22.15,0000 0000 0000 0000 000000
2015-02-28 12:24:23,0.24,4.09,0.00,19.91,25.38,28.31,4.95,28.88,1016.56,2037.46,2081.06,2348.78,2536.32,350.03,351.30,22.18,0000 0000 0000 0000 000000
2015-02-28 12:29:24,0.17,4.09,0.00,19.82,25.37,28.08,4.82,28.64,1016.40,2037.44,2079.69,2347.69,2535.15,350.07,351.60,22.21,0000 0000 0000 0000 000000
2015-02-28 12:34:25,0.25,4.10,0.00,19.89,25.37,28.15,4.82,28.75,1016.22,2037.52,2078.38,2346.68,2534.01,349.59,350.84,22.24,0000 0000 0000 0000 000000
2015-02-28 12:39:27,0.20,4.11,0.00,19.92,25.36,28.23,4.87,28.82,1016.14,2037.63,2076.97,2345.64,2532.81,350.12,351.18,22.27,0000 0000 0000 0000 000000
2015-02-28 12:44:28,0.25,4.11,0.00,19.96,25.35,28.31,4.86,28.89,1016.13,2037.75,2075.65,2344.64,2531.72,350.58,351.82,22.30,0000 0000 0000 0000 000000
2015-02-28 12:49:30,0.17,4.12,0.00,19.98,25.35,28.35,4.85,28.85,1016.13,2037.71,2074.38,2343.64,2530.59,349.86,351.01,22.33,0000 0000 0000 0000 000000
2015-02-28 12:54:31,0.16,4.12,0.00,19.97,25.35,28.36,4.83,28.59,1016.12,2037.72,2073.08,2342.62,2529.53,349.57,350.76,22.35,0000 0000 0000 0000 000000
2015-02-28 12:59:32,0.22,4.13,0.00,19.96,25.34,28.37,4.77,28.71,1016.04,2037.72,2071.81,2341.64,2528.38,349.03,350.13,22.38,0000 0000 0000 0000 000000